Time,TemperatureF,DewpointF,PressureIn,WindDirection,WindDirectionDegrees,WindSpeedMPH,WindSpeedGustMPH,Humidity,HourlyPrecipIn,Conditions,Clouds,dailyrainin,SoftwareType,DateUTC
2013-06-28 00:01:00,69.0,65.0,29.52,ENE,59,0.0,0.0,86,0.00,,,0.01,,2013-06-28 05:01:00,
2013-06-28 00:11:00,69.0,65.0,29.52,ENE,59,0.0,1.0,86,0.00,,,0.01,,2013-06-28 05:11:00,
2013-06-28 00:22:00,69.0,65.0,29.52,ENE,59,0.0,0.0,88,0.00,,,0.01,,2013-06-28 05:22:00,
2013-06-28 00:33:00,69.0,65.0,29.52,ENE,59,0.0,0.0,88,0.00,,,0.01,,2013-06-28 05:33:00,
2013-06-28 00:43:00,69.0,65.0,29.52,ENE,59,0.0,0.0,88,0.00,,,0.01,,2013-06-28 05:43:00,
2013-06-28 00:53:00,69.0,65.0,29.52,ENE,59,0.0,0.0,88,0.00,,,0.01,,2013-06-28 05:53:00,
2013-06-28 01:02:00,69.0,65.0,29.52,ENE,59,0.0,0.0,88,0.00,,,0.01,,2013-06-28 06:02:00,
2013-06-28 01:12:00,68.0,66.0,29.51,ENE,59,0.0,0.0,93,0.00,,,0.01,,2013-06-28 06:12:00,
2013-06-28 01:22:00,68.0,66.0,29.51,WSW,248,0.0,3.0,93,0.00,,,0.01,,2013-06-28 06:22:00,
2013-06-28 01:33:00,68.0,66.0,29.51,WSW,248,2.0,3.0,94,0.00,,,0.01,,2013-06-28 06:33:00,
2013-06-28 01:42:00,68.0,66.0,29.51,WSW,248,2.0,3.0,94,0.00,,,0.01,,2013-06-28 06:42:00,
2013-06-28 01:52:00,68.0,67.0,29.51,WSW,248,3.0,3.0,95,0.00,,,0.01,,2013-06-28 06:52:00,
2013-06-28 02:01:00,68.0,67.0,29.50,WSW,248,3.0,4.0,96,0.00,,,0.01,,2013-06-28 07:01:00,
2013-06-28 02:11:00,68.0,67.0,29.50,West,259,3.0,3.0,96,0.00,,,0.01,,2013-06-28 07:11:00,
2013-06-28 02:22:00,68.0,67.0,29.49,WSW,257,2.0,3.0,96,0.00,,,0.01,,2013-06-28 07:22:00,
2013-06-28 02:33:00,68.0,67.0,29.49,WSW,257,2.0,3.0,96,0.00,,,0.01,,2013-06-28 07:33:00,
2013-06-28 02:43:00,68.0,67.0,29.49,WSW,257,2.0,3.0,96,0.00,,,0.01,,2013-06-28 07:43:00,
2013-06-28 02:52:00,68.0,67.0,29.49,WSW,257,2.0,3.0,96,0.00,,,0.01,,2013-06-28 07:52:00,
2013-06-28 03:01:00,68.0,67.0,29.49,WSW,257,2.0,3.0,96,0.00,,,0.01,,2013-06-28 08:01:00,
2013-06-28 03:33:00,67.0,66.0,29.49,WSW,257,3.0,3.0,96,0.00,,,0.01,,2013-06-28 08:33:00,
2013-06-28 03:43:00,67.0,66.0,29.49,WSW,257,3.0,3.0,96,0.00,,,0.01,,2013-06-28 08:43:00,
2013-06-28 03:52:00,67.0,66.0,29.49,WSW,240,3.0,4.0,96,0.00,,,0.01,,2013-06-28 08:52:00,
2013-06-28 04:02:00,67.0,66.0,29.48,WSW,240,1.0,4.0,96,0.00,,,0.01,,2013-06-28 09:02:00,
2013-06-28 04:11:00,67.0,66.0,29.48,WSW,240,1.0,4.0,96,0.00,,,0.01,,2013-06-28 09:11:00,
2013-06-28 04:22:00,67.0,66.0,29.48,WSW,240,1.0,4.0,96,0.00,,,0.01,,2013-06-28 09:22:00,
2013-06-28 04:33:00,66.0,65.0,29.48,WSW,257,2.0,4.0,96,0.00,,,0.01,,2013-06-28 09:33:00,
2013-06-28 04:42:00,66.0,65.0,29.48,WSW,252,3.0,4.0,95,0.00,,,0.01,,2013-06-28 09:42:00,
2013-06-28 04:52:00,66.0,64.0,29.47,WSW,252,2.0,3.0,94,0.00,,,0.01,,2013-06-28 09:52:00,
2013-06-28 05:02:00,66.0,64.0,29.47,WSW,252,2.0,3.0,94,0.00,,,0.01,,2013-06-28 10:02:00,
2013-06-28 05:12:00,66.0,64.0,29.47,WSW,252,4.0,4.0,92,0.00,,,0.01,,2013-06-28 10:12:00,
2013-06-28 05:22:00,66.0,64.0,29.47,WSW,252,4.0,4.0,92,0.00,,,0.01,,2013-06-28 10:22:00,
2013-06-28 05:33:00,66.0,64.0,29.47,WSW,252,4.0,4.0,92,0.00,,,0.01,,2013-06-28 10:33:00,
2013-06-28 05:42:00,66.0,64.0,29.47,WSW,252,4.0,4.0,92,0.00,,,0.01,,2013-06-28 10:42:00,
2013-06-28 05:52:00,66.0,64.0,29.47,WSW,252,4.0,4.0,92,0.00,,,0.01,,2013-06-28 10:52:00,
2013-06-28 06:34:00,66.0,61.0,29.49,NNW,337,0.0,6.0,84,0.00,,,0.02,,2013-06-28 11:34:00,
2013-06-28 06:43:00,66.0,61.0,29.49,North,5,1.0,3.0,84,0.00,,,0.02,,2013-06-28 11:43:00,
2013-06-28 06:53:00,66.0,61.0,29.48,NNW,348,0.0,7.0,85,0.00,,,0.02,,2013-06-28 11:53:00,
2013-06-28 07:02:00,65.0,61.0,29.48,North,355,0.0,3.0,86,0.00,,,0.02,,2013-06-28 12:02:00,
2013-06-28 07:12:00,65.0,61.0,29.48,NW,305,0.0,2.0,88,0.00,,,0.02,,2013-06-28 12:12:00,
2013-06-28 07:22:00,65.0,62.0,29.48,WNW,290,3.0,3.0,89,0.00,,,0.02,,2013-06-28 12:22:00,
2013-06-28 07:34:00,65.0,61.0,29.48,West,273,0.0,5.0,88,0.00,,,0.02,,2013-06-28 12:34:00,
2013-06-28 07:43:00,65.0,61.0,29.48,West,273,0.0,5.0,88,0.00,,,0.02,,2013-06-28 12:43:00,
2013-06-28 07:52:00,66.0,62.0,29.47,West,275,3.0,7.0,86,0.00,,,0.02,,2013-06-28 12:52:00,
2013-06-28 08:01:00,67.0,62.0,29.47,West,267,0.0,3.0,84,0.00,,,0.02,,2013-06-28 13:01:00,
2013-06-28 08:11:00,67.0,61.0,29.47,West,266,3.0,4.0,81,0.00,,,0.02,,2013-06-28 13:11:00,
2013-06-28 08:23:00,67.0,61.0,29.47,West,266,3.0,4.0,81,0.00,,,0.02,,2013-06-28 13:23:00,
2013-06-28 08:33:00,69.0,61.0,29.47,West,261,2.0,7.0,75,0.00,,,0.02,,2013-06-28 13:33:00,
2013-06-28 08:43:00,69.0,60.0,29.48,West,273,4.0,6.0,74,0.00,,,0.02,,2013-06-28 13:43:00,
2013-06-28 08:53:00,69.0,60.0,29.48,West,273,4.0,6.0,74,0.00,,,0.02,,2013-06-28 13:53:00,
2013-06-28 09:02:00,69.0,60.0,29.47,West,267,3.0,7.0,73,0.00,,,0.02,,2013-06-28 14:02:00,
2013-06-28 09:12:00,69.0,60.0,29.47,West,267,3.0,7.0,73,0.00,,,0.02,,2013-06-28 14:12:00,
2013-06-28 09:33:00,69.0,60.0,29.47,West,267,3.0,7.0,73,0.00,,,0.02,,2013-06-28 14:33:00,
2013-06-28 09:44:00,71.0,60.0,29.47,West,270,5.0,7.0,69,0.00,,,0.02,,2013-06-28 14:44:00,
2013-06-28 09:53:00,71.0,60.0,29.47,West,270,5.0,7.0,69,0.00,,,0.02,,2013-06-28 14:53:00,
2013-06-28 10:02:00,72.0,60.0,29.46,West,267,9.0,9.0,66,0.00,,,0.02,,2013-06-28 15:02:00,
2013-06-28 10:11:00,72.0,59.0,29.46,West,270,2.0,9.0,64,0.00,,,0.02,,2013-06-28 15:11:00,
2013-06-28 10:24:00,72.0,59.0,29.46,West,270,2.0,9.0,64,0.00,,,0.02,,2013-06-28 15:24:00,
2013-06-28 10:34:00,72.0,59.0,29.46,West,270,2.0,9.0,64,0.00,,,0.02,,2013-06-28 15:34:00,
2013-06-28 10:43:00,73.0,61.0,29.46,WSW,255,7.0,12.0,65,0.01,,,0.03,,2013-06-28 15:43:00,
2013-06-28 10:52:00,73.0,61.0,29.46,WSW,255,7.0,12.0,65,0.01,,,0.03,,2013-06-28 15:52:00,
2013-06-28 11:01:00,73.0,61.0,29.46,WSW,255,7.0,12.0,65,0.01,,,0.03,,2013-06-28 16:01:00,
2013-06-28 11:11:00,74.0,61.0,29.46,West,274,3.0,6.0,63,0.01,,,0.03,,2013-06-28 16:11:00,
2013-06-28 11:24:00,74.0,61.0,29.46,West,274,3.0,6.0,63,0.01,,,0.03,,2013-06-28 16:24:00,
2013-06-28 11:33:00,74.0,60.0,29.46,West,265,2.0,7.0,61,0.01,,,0.03,,2013-06-28 16:33:00,
2013-06-28 11:44:00,75.0,61.0,29.46,West,263,4.0,7.0,62,0.01,,,0.03,,2013-06-28 16:44:00,
2013-06-28 11:53:00,74.0,60.0,29.46,West,264,3.0,8.0,62,0.00,,,0.03,,2013-06-28 16:53:00,
2013-06-28 12:02:00,74.0,60.0,29.46,West,264,3.0,8.0,62,0.00,,,0.03,,2013-06-28 17:02:00,
2013-06-28 12:11:00,74.0,60.0,29.46,West,264,3.0,8.0,62,0.00,,,0.03,,2013-06-28 17:11:00,
2013-06-28 12:22:00,75.0,61.0,29.46,West,268,3.0,7.0,61,0.00,,,0.03,,2013-06-28 17:22:00,
2013-06-28 12:33:00,75.0,61.0,29.46,West,268,3.0,7.0,61,0.00,,,0.03,,2013-06-28 17:33:00,
2013-06-28 12:44:00,76.0,60.0,29.45,NW,306,3.0,8.0,57,0.00,,,0.03,,2013-06-28 17:44:00,
2013-06-28 12:52:00,76.0,60.0,29.45,NW,306,3.0,8.0,57,0.00,,,0.03,,2013-06-28 17:52:00,
2013-06-28 13:02:00,75.0,59.0,29.45,SSW,209,3.0,13.0,58,0.00,,,0.03,,2013-06-28 18:02:00,
2013-06-28 13:11:00,76.0,60.0,29.45,West,268,2.0,5.0,57,0.00,,,0.03,,2013-06-28 18:11:00,
2013-06-28 13:22:00,75.0,60.0,29.44,WSW,257,3.0,5.0,60,0.00,,,0.03,,2013-06-28 18:22:00,
2013-06-28 13:33:00,75.0,60.0,29.44,West,268,5.0,5.0,59,0.00,,,0.03,,2013-06-28 18:33:00,
2013-06-28 13:43:00,74.0,59.0,29.44,West,276,4.0,9.0,59,0.00,,,0.03,,2013-06-28 18:43:00,
2013-06-28 13:52:00,74.0,59.0,29.44,West,276,4.0,9.0,59,0.00,,,0.03,,2013-06-28 18:52:00,
2013-06-28 14:01:00,74.0,59.0,29.44,West,276,4.0,9.0,59,0.00,,,0.03,,2013-06-28 19:01:00,
2013-06-28 14:11:00,75.0,60.0,29.44,WNW,285,8.0,8.0,60,0.00,,,0.03,,2013-06-28 19:11:00,
2013-06-28 14:22:00,75.0,60.0,29.43,West,277,4.0,10.0,59,0.00,,,0.03,,2013-06-28 19:22:00,
2013-06-28 14:33:00,75.0,60.0,29.43,West,277,4.0,10.0,59,0.00,,,0.03,,2013-06-28 19:33:00,
2013-06-28 14:43:00,75.0,60.0,29.43,West,261,5.0,8.0,60,0.00,,,0.03,,2013-06-28 19:43:00,
2013-06-28 14:53:00,74.0,60.0,29.43,West,263,6.0,8.0,61,0.00,,,0.03,,2013-06-28 19:53:00,
2013-06-28 15:02:00,74.0,60.0,29.43,West,265,9.0,12.0,62,0.00,,,0.03,,2013-06-28 20:02:00,
2013-06-28 15:11:00,75.0,62.0,29.42,WSW,258,7.0,11.0,64,0.00,,,0.03,,2013-06-28 20:11:00,
2013-06-28 15:22:00,75.0,62.0,29.42,WSW,258,7.0,11.0,64,0.00,,,0.03,,2013-06-28 20:22:00,
2013-06-28 15:33:00,75.0,62.0,29.42,West,261,5.0,10.0,63,0.00,,,0.03,,2013-06-28 20:33:00,
2013-06-28 15:43:00,75.0,62.0,29.42,West,261,5.0,10.0,63,0.00,,,0.03,,2013-06-28 20:43:00,
2013-06-28 15:52:00,74.0,61.0,29.41,West,279,5.0,10.0,64,0.00,,,0.03,,2013-06-28 20:52:00,
2013-06-28 16:02:00,75.0,61.0,29.41,West,275,4.0,7.0,62,0.00,,,0.03,,2013-06-28 21:02:00,
2013-06-28 16:11:00,75.0,59.0,29.41,West,266,8.0,14.0,58,0.00,,,0.03,,2013-06-28 21:11:00,
2013-06-28 16:23:00,75.0,60.0,29.41,West,281,0.0,9.0,60,0.00,,,0.03,,2013-06-28 21:23:00,
2013-06-28 16:34:00,75.0,60.0,29.41,West,281,0.0,9.0,60,0.00,,,0.03,,2013-06-28 21:34:00,
2013-06-28 16:43:00,75.0,60.0,29.41,West,281,0.0,9.0,60,0.00,,,0.03,,2013-06-28 21:43:00,
2013-06-28 16:53:00,75.0,61.0,29.41,West,265,4.0,10.0,62,0.00,,,0.02,,2013-06-28 21:53:00,
2013-06-28 17:01:00,75.0,62.0,29.41,West,261,9.0,9.0,63,0.00,,,0.02,,2013-06-28 22:01:00,
2013-06-28 17:11:00,75.0,62.0,29.41,West,261,9.0,9.0,63,0.00,,,0.02,,2013-06-28 22:11:00,
2013-06-28 17:22:00,74.0,61.0,29.41,WNW,296,3.0,7.0,64,0.00,,,0.02,,2013-06-28 22:22:00,
2013-06-28 17:34:00,74.0,61.0,29.41,WNW,296,3.0,7.0,64,0.00,,,0.02,,2013-06-28 22:34:00,
2013-06-28 17:43:00,74.0,61.0,29.41,WNW,296,3.0,7.0,64,0.00,,,0.02,,2013-06-28 22:43:00,
2013-06-28 17:52:00,74.0,62.0,29.42,North,355,2.0,4.0,67,0.00,,,0.02,,2013-06-28 22:52:00,
2013-06-28 18:02:00,74.0,62.0,29.42,West,261,0.0,2.0,67,0.00,,,0.02,,2013-06-28 23:02:00,
2013-06-28 18:11:00,75.0,62.0,29.42,West,275,1.0,5.0,65,0.00,,,0.02,,2013-06-28 23:11:00,
2013-06-28 18:23:00,75.0,62.0,29.42,West,275,1.0,5.0,65,0.00,,,0.02,,2013-06-28 23:23:00,
2013-06-28 18:34:00,75.0,62.0,29.42,West,275,1.0,5.0,65,0.00,,,0.02,,2013-06-28 23:34:00,
2013-06-28 18:43:00,75.0,62.0,29.42,West,275,1.0,5.0,65,0.00,,,0.02,,2013-06-28 23:43:00,
2013-06-28 18:53:00,74.0,63.0,29.41,WNW,287,0.0,3.0,68,0.00,,,0.02,,2013-06-28 23:53:00,
2013-06-28 19:02:00,73.0,62.0,29.41,WSW,254,0.0,3.0,69,0.00,,,0.02,,2013-06-29 00:02:00,
2013-06-28 19:11:00,73.0,62.0,29.42,NNE,15,0.0,3.0,68,0.00,,,0.02,,2013-06-29 00:11:00,
2013-06-28 19:23:00,73.0,62.0,29.42,NNE,15,0.0,3.0,68,0.00,,,0.02,,2013-06-29 00:23:00,
2013-06-28 19:33:00,73.0,62.0,29.42,NNE,12,1.0,5.0,69,0.00,,,0.02,,2013-06-29 00:33:00,
2013-06-28 19:42:00,73.0,62.0,29.42,NNE,12,1.0,5.0,69,0.00,,,0.02,,2013-06-29 00:42:00,
2013-06-28 19:52:00,73.0,62.0,29.42,NNE,12,1.0,5.0,69,0.00,,,0.02,,2013-06-29 00:52:00,
2013-06-28 20:01:00,73.0,62.0,29.42,NNE,12,1.0,5.0,69,0.00,,,0.02,,2013-06-29 01:01:00,
2013-06-28 20:11:00,73.0,62.0,29.42,NNE,12,1.0,5.0,69,0.00,,,0.02,,2013-06-29 01:11:00,